Wind_Speed
31 30 28 27 25 25 24 23 21 20 19 18 16 14 11 10 10 6 7 7 4 3 3 2 2 3 2 2 4 4 4 2 3 3 3 3 3 3 2 3 4 7 7 4 2 1 8 7 2 8 5 4 5 5
30 30 27 26 25 24 23 22 20 19 18 18 17 14 12 9 10 9 5 6 5 6 2 1 3 3 2 4 4 1 3 4 4 4 0 1 2 1 2 3 2 3 6 4 8 7 5 3 3 5 5 6 6 5
28 26 24 23 22 22 22 21 20 18 18 17 16 15 12 10 9 8 10 8 4 4 3 3 3 5 11 14 8 4 2 3 2 3 3 2 2 3 3 5 3 3 2 3 2 5 7 6 4 5 5 8 9 7
24 22 22 22 20 20 21 21 19 18 18 19 17 16 13 12 10 9 8 8 6 5 3 4 3 3 1 5 10 13 6 5 8 2 2 2 2 4 3 5 3 4 4 1 6 14 11 13 10 11 7 8 9 11
23 23 23 22 22 22 21 20 15 16 19 23 20 18 15 12 12 10 11 7 4 4 3 3 12 11 10 12 7 11 11 4 2 2 1 3 2 1 2 3 12 9 15 7 9 15 9 13 8 10 10 12 12 13
23 22 21 25 24 22 21 18 20 21 23 23 20 16 14 13 13 11 4 5 5 4 3 2 4 4 3 3 12 14 12 3 3 4 3 3 3 2 3 5 7 7 9 15 18 17 16 16 14 17 12 18 21 16
25 23 24 25 24 23 21 24 23 23 23 21 19 17 17 16 14 4 3 5 12 4 3 3 4 4 3 4 3 3 3 1 3 2 3 3 3 4 3 12 5 5 7 10 10 8 11 12 11 13 14 20 23 16
26 26 26 25 24 27 27 27 25 23 22 21 19 18 17 15 14 8 11 12 11 5 3 1 3 4 3 2 2 2 2 2 1 3 1 2 1 2 5 10 11 14 12 15 18 16 18 21 20 18 23 19 7 7
27 27 27 27 27 28 27 26 24 22 22 22 22 21 16 4 3 5 10 9 4 3 2 1 1 3 3 0 1 3 2 1 2 2 2 3 3 6 7 8 12 16 8 12 12 11 13 12 13 14 9 7 8 6
29 28 27 26 26 26 26 25 24 24 24 24 17 4 2 4 17 16 3 3 6 2 1 2 1 3 2 1 1 2 1 2 0 4 2 2 4 7 10 14 16 21 22 17 13 16 12 9 10 8 7 6 11 12
28 28 28 27 27 27 27 27 26 26 22 4 3 2 8 19 3 3 2 2 1 2 2 3 4 2 1 2 3 3 2 2 2 3 4 2 3 6 13 15 15 17 15 14 15 19 19 13 8 7 4 9 13 12
26 25 25 25 24 23 23 24 25 11 7 6 13 11 7 2 3 4 2 2 2 2 2 3 3 4 3 2 2 2 3 1 5 3 2 3 2 9 13 16 17 19 17 14 21 13 8 4 7 4 7 7 5 5
26 24 23 22 22 22 22 22 16 18 20 8 4 3 3 1 5 4 3 1 1 0 1 2 2 3 2 1 1 2 2 4 2 1 3 1 2 7 8 11 15 26 29 22 16 16 15 15 12 7 6 5 5 3
22 21 22 22 22 21 22 18 17 15 4 3 3 2 3 1 2 1 2 1 1 1 3 0 1 2 2 3 3 3 4 1 2 2 3 1 2 4 4 5 7 11 15 16 19 17 11 8 7 4 1 2 2 4
21 20 21 22 21 19 19 15 12 5 3 2 3 3 2 1 3 1 2 2 2 1 1 2 2 2 2 3 3 4 4 4 4 3 1 1 6 5 3 3 5 5 6 9 12 13 13 15 12 10 8 7 7 7
23 21 20 20 20 20 17 14 9 4 3 2 2 2 1 4 3 2 2 1 1 2 2 2 1 2 4 3 4 4 3 4 1 1 2 2 4 5 5 7 11 13 12 13 15 17 16 16 16 15 12 13 14 11
16 9 21 25 24 21 16 9 4 4 2 2 1 1 2 2 3 2 2 2 1 2 1 1 1 5 3 3 3 0 1 1 2 3 5 5 5 6 10 13 14 14 14 17 18 21 22 23 19 14 13 20 20 17
26 24 24 24 24 18 9 4 3 2 2 1 2 3 1 1 2 2 3 3 2 1 2 3 1 2 3 5 2 1 2 3 3 5 4 5 8 11 13 15 19 21 20 20 19 21 21 19 15 15 20 23 20 20
25 22 20 20 11 5 3 2 2 2 1 1 1 1 1 2 4 4 3 4 4 3 2 0 4 3 3 1 2 4 6 4 6 5 4 12 10 12 17 19 22 20 21 23 22 21 21 21 21 20 21 21 17 21
21 19 16 12 5 3 3 2 2 2 1 2 0 0 1 2 2 1 1 0 1 1 1 3 3 3 2 5 6 7 6 9 3 2 3 6 15 15 17 18 17 21 21 23 25 24 21 22 22 21 23 22 17 15
20 13 12 9 4 5 3 2 1 2 0 1 2 1 2 2 2 1 2 1 2 2 2 3 4 7 16 18 19 18 16 14 5 5 5 4 11 11 17 19 20 20 17 18 17 19 20 19 25 24 20 15 8 1
12 9 5 5 3 3 3 1 2 0 2 0 1 1 0 1 2 2 1 1 2 4 3 4 6 9 8 8 16 20 22 21 19 14 11 10 3 7 11 15 14 17 19 21 21 19 21 23 22 10 7 1 2 4
11 5 3 3 4 4 2 2 2 1 2 2 1 1 2 2 3 2 0 3 4 7 11 12 18 23 18 23 24 27 21 17 13 10 8 10 14 19 18 17 17 16 19 25 22 22 20 15 3 1 1 4 4 5
8 3 3 2 3 2 1 1 1 1 2 1 2 2 3 3 0 2 3 3 4 7 6 15 15 7 13 13 7 16 20 15 12 7 9 9 12 17 19 20 21 22 22 26 21 8 1 1 1 2 2 3 3 6
6 4 5 1 3 4 2 3 3 2 3 3 2 3 4 1 1 1 4 5 3 3 4 14 12 8 3 3 12 16 11 12 13 10 19 15 16 18 17 19 21 23 19 17 11 5 3 3 3 4 3 3 5 7
2 4 5 6 2 4 5 4 4 6 3 3 5 3 1 3 2 5 4 4 4 4 6 7 6 3 4 13 7 13 24 22 17 14 22 18 13 10 11 10 12 18 14 10 8 6 5 5 4 4 4 5 6 8
3 5 3 4 3 3 1 1 1 3 4 6 3 1 3 3 6 5 4 8 4 18 19 21 22 20 15 20 28 27 29 24 19 20 20 18 17 17 17 16 14 15 12 9 8 8 8 7 7 6 6 6 6 6
5 4 7 4 3 2 5 2 4 6 5 3 4 4 7 8 7 4 5 21 23 29 32 34 35 33 29 30 33 30 28 27 25 22 21 22 23 15 15 19 17 12 9 8 8 8 7 7 7 6 6 5 5 7
4 3 4 4 0 3 6 7 6 5 4 4 5 5 6 5 11 16 24 28 32 29 23 24 29 31 31 34 34 34 32 28 16 5 9 6 9 21 17 14 13 10 8 7 6 7 6 6 5 7 7 6 5 5
4 5 4 4 7 8 6 6 4 4 6 6 2 3 5 10 25 30 31 27 21 23 27 27 27 23 22 21 20 25 28 27 26 22 9 8 15 15 11 13 13 11 10 8 8 8 7 6 6 4 1 3 6 9
3 5 2 4 6 6 11 7 4 1 1 3 6 6 11 7 20 29 26 23 20 21 21 20 20 22 20 19 19 16 15 26 23 23 23 25 23 16 13 12 11 11 9 9 9 7 6 5 3 2 3 5 7 9
3 7 5 4 6 4 2 2 3 4 3 1 8 2 4 3 5 7 4 6 8 13 15 14 16 19 19 21 24 25 25 24 20 17 19 17 12 10 11 10 9 9 9 8 7 5 4 3 2 2 3 5 7 9
1 3 3 1 1 2 3 2 1 3 2 3 6 7 5 5 7 3 3 4 4 7 9 11 13 15 15 14 11 9 9 9 9 9 10 11 10 9 7 6 5 6 6 6 5 4 3 3 2 2 3 5 7 9
Wind_Direction
166 166 167 168 169 171 172 174 174 176 177 177 176 174 168 163 159 129 104 80 85 110 287 37 39 126 72 91 141 187 65 347 44 91 140 224 200 249 299 250 197 174 167 187 115 145 277 239 199 201 223 249 234 239
165 165 167 168 171 171 172 173 174 175 173 174 174 168 167 164 167 153 103 107 84 87 195 266 262 234 213 175 131 40 163 153 171 92 239 94 241 315 204 262 282 242 195 190 180 211 240 268 214 259 284 252 248 222
163 164 168 174 177 179 180 181 181 182 181 174 175 172 163 163 164 161 122 122 103 62 337 14 264 229 234 236 228 122 308 152 167 162 159 179 216 143 216 241 258 276 181 207 28 254 251 277 274 250 252 245 258 259
165 167 169 169 165 166 168 173 176 184 184 182 173 167 161 158 159 152 130 126 97 96 103 285 334 240 188 210 217 219 129 120 121 106 112 146 175 171 230 255 213 225 336 251 267 274 282 271 266 274 271 276 266 263
159 161 163 162 164 161 159 161 164 170 175 171 165 161 154 150 157 149 120 129 114 104 187 271 311 293 266 230 213 204 197 130 118 108 148 219 223 195 234 284 252 227 248 235 253 266 243 270 267 278 286 284 276 281
154 155 157 163 158 159 159 155 149 145 146 151 155 158 160 159 151 130 46 192 160 147 85 341 309 307 21 200 188 182 197 130 133 142 208 242 232 157 247 256 244 211 222 233 250 262 265 265 269 264 263 270 268 272
151 151 149 151 154 157 156 150 145 143 141 142 142 141 141 146 152 83 157 146 158 150 81 330 339 294 21 107 76 89 127 146 133 169 226 200 194 199 237 259 234 233 239 252 250 257 273 257 264 282 273 267 271 238
144 144 144 143 143 146 146 145 144 143 139 136 135 138 135 133 109 86 89 128 145 99 58 343 277 351 17 12 63 14 118 166 181 206 130 190 130 221 252 256 271 267 269 266 262 257 253 264 278 274 269 256 211 190
146 145 143 143 141 143 144 144 143 141 138 134 128 124 117 109 120 129 125 126 118 91 137 97 161 252 7 346 122 30 76 159 327 250 229 156 182 226 253 283 283 279 249 263 274 260 257 251 253 265 272 215 183 172
141 142 145 145 145 144 145 144 143 140 139 138 131 92 34 118 121 115 84 43 19 31 77 229 135 275 92 66 61 71 61 222 256 238 111 211 255 272 293 305 298 288 285 283 272 276 263 247 232 250 234 209 184 173
141 141 142 142 143 143 142 139 136 139 140 128 87 69 120 139 110 55 115 179 115 219 194 234 198 241 243 136 209 186 197 194 239 242 164 237 263 338 326 323 313 315 296 288 274 261 265 256 248 237 226 162 161 167
135 137 140 143 144 145 146 144 146 135 117 113 116 108 121 69 42 99 184 145 195 238 196 186 227 197 271 113 118 185 222 116 248 133 190 242 8 354 358 357 1 352 342 17 21 7 334 304 266 160 99 82 112 174
136 137 140 137 137 139 139 146 144 133 125 123 90 88 93 272 55 141 193 240 186 196 301 224 248 190 9 43 284 117 169 233 88 63 227 146 318 347 358 8 9 21 14 358 10 23 37 46 51 84 113 126 133 123
139 143 147 145 138 138 142 134 141 148 105 78 111 114 147 176 236 145 120 86 185 120 311 302 256 178 160 190 209 227 235 115 248 228 206 177 11 297 331 359 348 11 11 355 4 358 357 25 22 52 145 184 207 248
132 135 144 148 146 143 147 143 142 98 74 85 81 128 161 133 65 147 103 130 241 209 13 8 323 140 247 244 211 236 208 225 209 215 173 210 258 286 274 281 301 296 300 317 315 312 318 316 310 301 289 279 265 272
127 124 136 144 144 139 144 146 121 69 65 75 85 86 32 74 354 349 9 4 345 317 5 69 292 295 244 235 222 211 246 218 150 109 247 265 274 276 281 286 280 275 284 289 301 305 304 294 290 281 280 287 284 277
121 119 141 139 136 135 132 112 81 52 86 82 313 70 138 161 189 208 186 234 180 81 204 75 331 234 311 266 238 64 195 71 251 233 244 244 254 277 299 307 309 315 301 300 302 307 307 310 309 278 274 291 291 274
123 127 128 134 135 119 82 61 91 110 134 185 110 257 230 167 163 225 229 242 111 183 114 219 197 239 226 270 299 43 273 275 263 257 263 277 283 293 309 313 315 315 312 307 306 306 303 300 291 279 283 294 286 275
132 130 134 139 132 97 92 58 72 108 178 204 233 210 191 246 251 292 291 305 224 224 123 149 241 227 231 118 12 309 284 262 263 254 251 266 263 288 301 308 310 304 300 301 304 301 295 285 280 288 291 281 265 279
125 129 134 139 119 87 78 35 102 101 163 231 116 328 197 215 228 236 286 269 119 199 258 226 226 232 214 279 276 276 274 263 232 260 263 265 275 278 285 293 294 298 298 294 289 289 292 296 301 303 309 300 279 270
115 116 124 122 69 60 96 114 74 191 85 139 170 81 262 352 278 244 258 216 88 215 244 236 245 255 259 269 268 263 264 264 226 213 251 260 283 275 294 298 297 289 280 282 280 288 290 281 297 312 313 310 286 164
125 117 94 58 78 56 59 100 121 27 83 249 343 155 275 347 286 257 233 83 231 241 221 247 263 266 270 267 272 280 281 279 263 265 263 275 278 297 295 295 301 298 295 286 283 280 281 291 305 295 304 290 3 357
122 104 76 69 65 44 266 140 93 190 101 269 47 15 305 264 235 110 326 221 238 238 255 272 276 280 268 281 289 285 272 249 243 255 279 287 299 300 297 297 301 298 304 298 290 284 284 288 236 140 24 346 344 326
114 82 89 115 102 216 9 349 202 166 40 132 157 243 241 227 257 65 225 249 244 279 271 282 286 282 293 286 259 261 258 246 246 249 277 289 295 299 303 298 301 300 299 302 289 282 167 141 278 286 299 303 321 334
82 302 100 297 328 69 56 349 320 106 210 212 127 286 273 108 139 242 232 271 269 262 270 295 298 264 234 271 296 296 277 242 234 242 281 289 296 297 295 301 304 313 319 307 305 304 291 278 257 269 273 314 329 331
146 255 141 185 247 152 189 167 211 211 164 190 230 249 52 115 128 240 235 233 235 233 245 233 231 257 261 258 247 272 278 262 243 246 272 290 287 256 279 292 298 307 321 330 330 325 320 315 301 296 309 321 328 330
192 243 192 197 177 153 39 293 187 126 168 203 230 164 119 205 236 245 255 243 221 273 272 261 269 255 258 270 280 282 283 267 254 259 279 285 293 288 280 271 276 293 304 308 323 326 321 316 312 312 316 324 338 347
203 169 167 206 181 194 171 162 176 203 223 208 108 184 194 202 233 235 227 290 286 285 282 282 279 276 271 271 280 277 273 273 266 273 264 272 285 291 281 277 270 270 273 293 309 317 320 320 318 318 325 335 344 338
201 184 126 198 228 191 202 195 212 222 196 148 181 236 247 235 264 272 280 285 289 284 272 275 277 276 274 273 271 269 266 263 259 221 244 260 293 293 297 265 254 256 256 279 303 306 303 312 316 315 309 304 320 326
236 172 151 155 168 213 232 184 221 235 226 227 211 309 283 271 278 284 283 283 280 278 278 278 274 271 265 264 263 269 271 268 263 239 242 242 256 291 286 254 241 241 256 275 293 297 289 282 286 273 286 312 327 333
167 158 159 180 215 235 240 238 229 185 181 229 254 245 266 277 285 285 285 282 288 298 291 282 279 273 262 260 252 252 268 277 273 273 268 267 264 273 272 244 240 244 253 272 285 281 271 274 273 278 325 339 342 346
143 185 181 223 257 259 13 169 204 193 252 239 266 255 319 11 268 283 303 327 337 358 352 340 315 298 301 292 284 280 279 279 273 269 271 255 239 233 225 222 231 252 264 265 263 259 255 267 261 307 348 345 348 354
47 45 5 317 230 252 276 140 332 298 324 254 262 257 225 188 234 250 238 319 351 0 356 352 348 344 342 337 320 294 283 270 264 248 217 204 196 196 206 227 242 247 247 236 227 235 245 251 255 336 356 356 360 0
Height
765 771 778 785 791 796 801 806 812 817 822 826 831 834 836 838 840 842 845 846 847 858 859 856 857 859 864 868 875 875 882 886 899 907 911 909 899 884 877 865 863 873 897 919 918 935 892 842 843 851 847 840 837 838
766 771 778 784 792 796 801 806 811 817 821 826 830 833 836 838 840 843 846 849 850 852 858 858 858 858 860 861 866 872 873 876 883 901 908 903 897 895 879 882 860 872 865 874 877 871 848 840 837 837 837 837 834 833
766 772 779 785 791 796 800 805 810 816 822 825 831 834 836 838 842 844 847 850 852 854 857 857 856 857 858 859 862 873 876 873 877 878 891 896 894 889 894 879 865 857 856 871 860 844 843 838 838 837 835 834 830 829
768 773 779 786 790 795 799 805 810 816 820 826 830 834 837 840 843 846 847 851 853 858 869 861 855 855 856 857 859 863 865 869 871 875 889 899 894 881 883 874 872 859 858 856 854 842 840 835 834 832 830 829 827 824
769 775 780 785 790 795 800 806 810 815 819 825 831 835 838 841 844 847 850 852 854 858 868 862 854 852 853 855 857 861 864 867 870 877 882 887 881 879 877 875 853 849 846 854 847 833 839 832 829 828 826 824 821 818
771 776 780 786 791 797 802 807 812 816 821 826 832 835 839 842 846 849 853 854 854 856 863 869 856 853 852 853 855 859 862 866 871 875 881 877 871 873 873 862 833 836 836 835 834 829 828 826 823 821 822 817 814 811
772 778 782 787 793 799 804 809 814 819 824 828 832 836 840 843 848 850 854 853 854 858 862 866 862 853 852 854 857 861 863 865 868 871 873 873 872 870 867 851 831 831 831 829 827 827 824 821 817 812 812 809 806 804
775 779 785 790 795 800 806 811 817 823 827 830 834 839 843 847 850 852 854 855 857 859 862 867 865 860 853 861 865 862 864 865 864 866 868 869 869 867 851 829 826 824 823 821 816 815 814 810 808 806 802 801 802 802
777 783 789 794 799 805 810 814 819 825 829 834 837 841 846 850 853 854 856 858 860 863 874 871 870 879 856 863 864 866 867 869 869 862 861 861 860 856 835 833 826 819 820 812 809 807 805 804 802 798 794 795 796 800
781 786 792 799 804 808 813 817 822 827 832 836 840 842 851 851 852 856 860 862 863 863 866 866 866 868 860 863 863 871 868 868 878 862 862 860 848 836 833 830 825 816 808 807 807 801 796 796 794 792 790 789 791 793
786 792 797 802 808 812 816 820 825 830 835 837 840 846 850 852 853 857 864 863 865 864 864 862 865 863 857 863 864 864 862 860 860 852 858 854 845 842 835 828 820 810 804 799 797 791 787 788 787 788 787 787 790 794
790 796 801 806 811 815 820 824 828 831 834 837 841 847 852 853 859 864 868 865 864 859 861 862 860 862 858 856 860 860 855 857 848 850 850 847 844 840 836 829 820 814 808 800 796 788 784 783 784 785 788 791 794 797
795 800 805 809 814 819 823 827 829 833 836 840 843 848 854 859 873 863 879 858 863 857 856 856 859 857 859 858 859 862 865 860 849 864 846 839 840 838 836 831 827 821 815 810 803 799 795 793 792 793 795 796 797 797
798 803 808 813 818 822 825 828 832 835 837 841 847 861 859 861 855 852 853 856 857 857 856 857 858 855 853 854 852 854 845 845 847 860 838 839 839 837 834 831 828 823 821 818 812 808 805 802 800 797 798 797 795 796
802 806 811 816 820 824 827 831 834 836 839 845 847 861 855 851 853 855 855 856 855 855 855 857 857 856 858 851 841 837 835 833 833 847 838 838 833 834 831 829 826 821 820 817 814 811 808 807 804 801 799 798 795 793
806 810 814 818 822 826 830 834 836 839 842 846 848 852 853 857 862 859 856 857 854 855 855 856 855 854 849 840 834 833 830 832 835 840 838 834 833 831 829 826 823 820 817 815 812 808 805 803 800 797 796 796 793 790
808 811 816 821 825 829 833 836 839 844 847 848 857 852 855 856 859 858 857 855 854 857 868 861 864 846 845 840 830 829 839 837 837 836 834 830 829 828 825 823 821 816 814 810 808 804 801 798 795 793 791 787 787 786
811 816 820 824 827 832 835 838 841 846 847 850 858 857 853 852 856 857 855 853 855 856 858 859 855 850 852 838 837 838 840 838 835 832 830 827 825 823 822 820 817 814 810 806 803 800 797 794 791 788 784 781 782 780
816 820 824 828 830 832 837 842 843 851 850 849 850 851 851 851 850 850 850 849 850 851 854 854 852 851 844 840 840 841 839 834 831 829 826 823 822 821 819 817 814 810 807 803 799 796 793 790 786 783 781 778 776 772
821 824 827 829 831 834 841 845 845 847 849 851 849 851 850 851 848 847 848 848 849 851 854 851 845 844 842 839 836 834 831 828 827 827 824 820 818 818 816 814 810 806 803 799 796 791 786 782 778 777 773 770 768 765
824 828 830 831 834 837 841 845 847 847 846 850 849 849 852 848 849 850 850 846 852 851 851 842 839 833 830 829 828 827 824 821 820 818 816 816 813 812 810 807 805 802 799 794 790 783 780 776 771 769 767 765 764 763
827 831 833 835 838 841 844 844 846 847 849 849 850 848 854 862 861 853 846 851 851 843 838 835 831 828 826 824 821 819 816 813 812 811 810 810 809 808 805 803 801 796 792 787 783 778 774 771 768 766 765 765 765 765
830 833 835 837 844 849 851 845 847 847 856 853 850 851 857 857 848 845 857 846 840 831 830 828 825 821 819 816 814 811 809 807 806 806 806 806 805 802 799 797 796 792 787 779 777 772 769 766 764 764 765 765 765 765
832 834 841 844 846 856 847 852 847 847 850 851 853 855 851 854 845 853 854 846 832 826 824 821 819 817 814 812 809 806 804 803 802 803 802 802 800 796 794 792 790 787 783 775 770 767 765 764 765 765 765 764 764 763
839 845 845 853 851 857 861 864 856 851 865 864 861 868 858 848 861 869 849 833 830 825 820 817 815 814 814 809 805 802 801 800 799 797 795 796 794 792 789 787 784 782 778 773 770 767 766 765 765 765 764 764 763 762
850 847 847 848 860 856 857 866 869 863 861 863 857 848 848 858 863 853 842 830 825 818 814 812 810 808 806 803 802 799 795 793 794 793 790 791 789 788 786 784 780 776 775 772 770 768 767 766 765 764 764 763 762 761
849 847 835 835 836 837 852 849 843 853 864 859 854 857 859 860 856 834 817 810 810 806 804 803 802 799 797 794 792 791 789 788 787 786 785 784 783 783 781 779 776 774 772 771 770 768 767 766 765 764 763 762 761 760
831 830 836 837 838 833 849 850 855 851 843 833 843 848 842 841 828 813 805 801 801 798 796 793 791 789 787 785 783 782 781 780 780 779 778 777 776 775 774 772 771 770 769 769 768 767 765 765 764 763 762 761 760 759
821 821 827 840 843 839 836 834 833 824 816 823 833 832 819 808 801 798 795 793 791 789 786 783 779 776 774 772 771 771 772 772 773 775 774 773 769 767 768 767 767 768 767 766 765 765 764 764 763 762 761 760 759 758
820 813 825 837 832 828 817 813 813 805 804 805 805 804 800 796 793 791 787 785 783 779 776 773 770 769 766 765 763 761 762 763 763 765 765 765 762 763 763 763 764 765 765 764 763 763 762 762 761 760 759 758 757 756
804 808 816 817 819 805 799 798 800 801 801 801 797 799 793 789 783 780 779 776 773 771 769 765 762 760 759 758 757 757 755 753 755 755 755 756 756 758 759 761 762 762 762 762 762 761 760 760 759 758 757 757 756 755
808 806 809 816 807 796 799 802 802 803 800 803 790 792 791 794 790 775 770 769 768 766 765 763 760 756 755 752 751 750 749 748 749 749 750 750 752 754 756 758 759 760 760 759 760 759 759 759 758 757 756 756 755 754
804 806 805 803 801 801 802 798 801 804 806 804 789 781 782 785 784 768 767 766 766 765 763 761 758 755 751 748 745 744 744 744 743 744 746 748 749 751 754 755 757 757 758 758 758 759 759 758 758 757 756 755 754 753